Location: *
(53.9002°N, 27.5624°E)
Time: 08:01:30
(UTC+00:00)

Cosmos 2123 Rocket - Pass Details

Date: 12 November 2019
Orbit: 961 x 992 km, 82.9° (Epoch: 14 December)

Event Time Altitude Azimuth Distance (km) Brightness Sun altitude
Rises 14:43:20 0° 166° (SSE) 3,659 7.1 -4.4°
Reaches altitude 10° 14:45:56 10° 160° (SSE) 2,711 6.4 -4.7°
Maximum altitude 14:51:47 45° 90° (E) 1,296 4.3 -5.5°
Drops below altitude 10° 14:57:37 10° 20° (NNE) 2,713 6.0 -6.3°
Sets 15:00:13 0° 14° (NNE) 3,662 6.7 -6.6°
